Vorticity
nan nan nan nan nan nan nan nan nan nan nan nan nan nan nan nan nan nan nan nan nan nan nan nan nan nan nan nan nan nan nan nan nan nan nan nan nan nan nan nan nan nan nan nan
nan 11 8 7 10 9 3 4 4 3 2 3 6 3 17 18 12 10 8 6 7 7 8 8 8 8 8 7 7 7 6 7 6 6 7 8 8 8 8 8 11 13 10 nan
nan 10 14 11 7 5 4 7 4 1 8 10 12 12 8 10 12 13 11 9 8 8 7 7 8 8 8 9 9 9 8 4 4 6 8 7 6 7 10 9 13 12 10 nan
nan 7 11 9 7 10 8 9 5 6 5 8 3 15 10 8 11 14 12 11 9 9 7 8 8 8 9 10 11 12 10 7 5 7 6 7 6 6 8 10 12 13 11 nan
nan 13 7 8 13 6 7 8 7 7 7 7 2 8 7 6 10 16 18 14 12 8 8 7 7 10 11 11 11 12 11 10 9 7 8 10 7 6 8 11 8 9 10 nan
nan 10 15 13 8 11 14 6 7 6 8 11 14 7 7 5 4 11 18 19 17 11 10 8 8 8 10 10 10 11 10 10 10 9 10 6 7 7 8 9 8 8 8 nan
nan 7 6 15 9 10 12 4 7 9 7 6 17 8 3 7 9 8 8 19 20 14 10 9 9 7 9 9 8 9 10 9 9 8 8 9 8 8 8 8 9 7 8 nan
nan 16 12 6 11 7 9 7 6 5 9 8 7 10 7 1 11 9 8 13 18 15 11 10 9 8 8 9 8 8 9 8 8 8 8 9 8 7 10 10 9 9 8 nan
nan 6 12 18 15 8 6 7 7 9 6 7 6 11 10 3 6 9 12 14 14 16 13 12 9 8 9 11 10 9 9 7 7 8 9 9 7 7 11 12 7 8 9 nan
nan 7 16 14 10 10 4 14 16 8 8 8 5 3 7 11 6 9 11 19 17 14 13 11 11 9 12 12 11 10 10 9 8 8 8 9 9 9 9 8 8 7 7 nan
nan 8 9 9 18 11 9 6 0 12 13 8 9 6 5 6 5 7 10 14 18 17 15 12 10 10 12 13 12 11 11 10 9 9 11 10 10 10 8 7 9 8 7 nan
nan 6 8 9 6 6 17 17 2 7 7 3 4 6 9 9 7 6 10 11 10 16 18 13 12 10 10 11 11 12 11 12 11 10 11 11 9 11 9 9 8 8 8 nan
nan 7 10 12 6 7 10 8 10 6 6 7 10 8 9 7 11 11 11 10 10 14 14 14 12 9 7 11 13 14 13 10 9 8 9 9 10 12 11 9 7 8 9 nan
nan 6 7 4 7 22 18 4 7 8 9 7 6 6 6 11 14 14 16 10 12 14 13 13 13 11 9 10 11 12 12 9 9 10 8 8 9 8 13 10 10 9 9 nan
nan 9 11 5 9 10 11 17 10 7 5 6 10 11 6 11 9 11 14 19 20 14 13 12 13 13 10 10 10 9 7 4 5 10 10 9 10 7 13 12 11 11 10 nan
nan 8 7 9 13 11 15 13 11 9 9 8 5 6 8 7 9 10 13 21 17 13 13 13 10 9 9 9 8 7 8 8 6 12 14 9 8 8 8 13 10 8 10 nan
nan 10 8 10 5 10 16 21 13 10 11 5 6 2 6 7 7 9 15 16 17 13 12 11 10 6 8 7 6 6 4 9 13 14 12 10 9 10 6 10 9 10 8 nan
nan 10 9 12 9 7 2 11 18 21 9 5 5 4 6 10 11 6 18 17 19 14 12 8 9 11 8 7 3 2 9 9 10 12 12 10 7 8 11 10 9 9 9 nan
nan 9 11 12 14 9 9 12 16 15 8 14 11 6 10 12 11 20 16 19 18 14 11 9 10 12 10 8 4 2 5 12 14 10 10 7 8 10 9 9 9 8 8 nan
nan 9 8 9 10 10 15 12 15 16 8 1 13 16 13 21 20 13 10 19 16 13 11 12 11 9 10 8 4 5 7 11 12 10 8 9 9 10 10 10 9 9 9 nan
nan 7 11 12 9 7 14 9 15 9 1 2 11 14 14 14 14 10 15 13 13 15 16 13 11 10 10 9 7 6 8 10 12 13 10 10 11 9 10 11 10 9 9 nan
nan 11 12 9 11 9 8 11 -1 10 9 9 11 11 13 15 11 11 14 19 19 17 14 11 11 13 13 11 6 9 13 13 13 12 11 9 10 10 11 10 9 8 9 nan
nan 7 8 11 17 15 8 13 12 11 11 10 12 9 10 11 12 13 11 18 21 16 11 11 13 13 12 7 6 12 13 13 12 11 10 11 10 10 11 9 8 8 8 nan
nan 13 9 11 4 7 16 10 13 13 12 11 15 13 9 9 12 14 11 9 13 16 14 12 12 8 9 10 14 14 14 10 9 10 10 10 10 10 9 9 9 8 9 nan
nan 16 10 11 12 10 2 -2 4 8 11 16 16 13 13 12 14 14 11 11 10 10 12 16 13 8 9 12 17 14 12 10 8 9 8 7 9 10 8 8 10 13 12 nan
nan nan nan nan nan nan nan nan nan nan nan nan nan nan nan nan nan nan nan nan nan nan nan nan nan nan nan nan nan nan nan nan nan nan nan nan nan nan nan nan nan nan nan nan
CAPE
0 0 0 0 8 21 0 21 2 0 0 94 290 331 376 997 965 800 769 786 795 857 791 753 942 919 951 1091 1611 1218 1629 1463 1549 1382 1494 1641 1646 1738 1717 1768 2056 2314 2217 2331
0 0 0 0 0 0 0 51 41 5 0 0 284 266 342 506 1052 1009 847 738 659 681 665 636 763 856 914 1142 1393 1908 1630 2162 2228 1627 1612 1380 1666 1601 1739 2091 2036 2292 2205 2213
0 0 0 0 0 0 0 40 62 3 0 0 57 271 318 673 757 933 963 839 768 759 787 793 702 533 551 891 1347 1755 2090 1906 2015 1579 1981 2215 2263 3014 2390 1795 2602 2246 2088 2181
0 0 0 0 0 0 0 16 0 0 0 64 20 236 366 400 786 1120 985 996 853 899 861 884 876 971 734 758 1135 1640 2052 2174 2074 2094 1634 2347 2945 1573 1493 1693 2344 2538 2148 1928
0 0 0 0 0 0 0 0 0 0 0 28 55 238 306 320 142 336 1270 969 917 971 894 900 999 897 1109 933 1167 1422 1922 2330 2229 2292 2109 2386 2402 1621 1646 1464 2310 2517 2330 2152
0 0 0 0 0 0 0 0 0 0 7 54 46 278 302 378 149 96 515 857 950 822 1112 947 1168 1321 1510 1257 1161 1266 1890 2418 2426 2567 2676 2748 2239 2067 1898 1950 2012 2623 2188 1411
0 0 0 0 0 0 0 0 0 0 47 85 122 251 286 243 162 96 99 455 972 1018 1137 1215 1309 1365 1508 1400 1326 1399 1973 2464 2714 2879 2788 2830 2965 2635 2361 2544 2071 2030 1018 91
0 0 0 0 0 0 0 0 0 0 16 238 207 161 262 129 56 125 119 358 961 1139 1123 1223 1120 1341 1599 1564 1473 1477 2015 2454 2507 2509 2839 3124 3225 2515 2461 2315 1950 984 104 131
0 0 0 0 0 0 0 0 0 0 50 164 183 125 238 67 48 91 152 112 744 969 1026 1159 1144 1107 1181 1539 1634 1639 1971 2224 2037 1984 2802 3057 3224 2856 2539 2328 1620 596 256 963
0 0 0 0 0 0 0 0 0 0 14 92 127 117 201 89 24 53 59 148 217 801 1021 1089 1234 1198 1243 1441 1751 1672 1819 2000 1941 2027 2451 2605 2803 3259 2827 2035 1193 449 1028 1246
0 0 0 0 0 0 0 0 0 3 35 118 260 228 132 27 29 62 31 309 426 435 1014 1081 1278 1336 1468 1508 1704 1803 1779 1761 1853 2220 2446 2392 2851 3089 2567 1815 922 1280 1513 1828
0 0 0 0 0 0 0 0 0 3 15 30 18 109 51 0 2 11 172 360 777 714 895 1124 1287 1480 1800 1809 1951 2041 1935 1908 2132 2457 2732 2886 3291 2839 2622 1724 764 1343 1743 1734
0 0 0 0 0 0 0 0 0 0 6 11 62 95 20 0 0 32 536 399 924 1289 1017 1148 1270 1588 1980 2477 2833 2683 2317 2548 2475 3378 2984 3460 2849 2299 1948 1121 1193 1506 1813 1630
0 0 0 0 0 0 0 0 0 0 2 8 43 59 26 12 32 76 351 589 794 1759 1393 1349 1306 1510 2242 3185 3110 2665 2935 2839 2832 3019 2957 2058 1461 1602 1313 796 1424 1768 1675 1007
0 12 0 0 0 0 0 0 0 0 0 23 53 87 30 57 197 413 507 689 1052 1762 1575 1901 2170 2828 2527 1921 2091 2479 2153 2092 2641 2076 1740 1041 344 690 998 1328 1750 559 525 393
16 51 50 41 2 0 0 0 0 0 0 2 4 0 0 35 262 512 807 949 1267 2063 1966 2292 3082 2807 1623 1791 1943 1686 771 1188 1331 1394 1364 861 158 167 1079 1382 512 282 102 6
36 21 36 37 61 31 1 0 0 0 1 0 1 1 0 0 17 778 979 1101 1360 2123 2598 3035 3413 2045 1467 1702 920 816 799 273 602 881 742 893 339 256 919 201 109 56 4 1
116 113 47 45 72 125 60 24 2 2 1 0 0 0 0 0 5 542 834 1068 1433 2012 2045 3169 3243 2733 2180 2152 1160 1103 1032 651 774 1406 1398 933 497 748 125 47 41 14 3 0
394 363 85 137 43 22 80 131 50 11 3 8 13 1 0 2 225 521 1094 1059 1598 1918 2234 2149 2770 2851 2397 2208 1666 1764 1525 725 432 539 725 1072 1233 559 301 84 35 6 3 0
323 383 441 180 269 129 181 667 780 660 173 953 1313 900 884 1162 754 1307 1783 1789 1664 1802 2126 2348 2723 2859 2649 1899 1729 2004 1287 728 695 554 654 859 1242 682 410 168 15 4 0 0
411 631 448 415 357 252 560 674 706 317 463 1205 1373 1548 1476 1184 1260 1505 2123 2363 2027 1504 2170 2505 2800 2549 2746 2637 2016 1797 1172 996 732 565 987 1157 1314 971 424 40 9 3 0 0
406 515 366 477 441 266 880 879 870 985 957 1145 1716 1578 1504 1720 1997 2439 2342 2333 2187 1874 2467 2497 2793 2830 2230 2146 2132 1578 1575 1220 1341 1360 1294 1163 845 311 81 10 8 1 0 0
560 492 884 617 748 995 756 698 652 748 944 1404 1524 1697 1297 1626 2031 2362 1849 1745 2121 2676 2363 2461 2908 2919 2737 2497 1154 1160 1288 1396 1213 929 724 583 361 207 42 6 4 0 0 0
518 650 588 827 907 772 639 612 616 690 680 568 811 1466 1181 1084 1057 2503 1993 1576 1584 2162 2142 2589 2915 2315 1881 1669 1606 1623 1231 1126 1020 759 609 267 166 23 9 1 0 0 0 0
611 587 656 802 898 791 671 522 409 528 519 678 1179 1233 1095 1146 1050 2560 2300 1896 1660 1462 1657 2338 2581 1990 1800 1723 1363 1293 1219 1292 1112 658 308 99 1 0 0 0 0 0 0 0
432 413 726 699 876 651 488 126 39 273 401 449 731 807 1122 1225 1435 2444 2064 1587 1273 1114 1343 1355 1220 1232 1066 1026 992 1037 1048 1057 692 292 104 2 0 0 0 0 0 0 0 0